DateTimeUTC,F1_A11,F1_S11,BsB_S11,BsG_S11,BsR_S11,BbsB_S11,BbsG_S11,BbsR_S11,BaB_A11,BaG_A11,BaR_A11,Tu_S11,T_S11,Uu_S11,U_S11,P_S11,T1_A11
2021-08-11T21:00:00Z,00040200,20000000,,,,,,,0000.08,0000.15,-000.34,19.3,25.9,12.0,08.0,0674.9,31.1
2021-08-11T21:01:00Z,00040200,20000000,,,,,,,0000.22,0000.06,0000.38,19.3,26.0,11.9,07.9,0674.9,31.1
2021-08-11T21:02:00Z,00040200,20000000,,,,,,,-000.22,0000.05,0000.03,19.3,26.0,11.9,07.9,0674.9,31.1
2021-08-11T21:03:00Z,00040200,60000000,,,,,,,0000.57,0000.00,0000.51,19.3,26.0,11.9,07.9,0674.9,31.1
2021-08-11T21:04:00Z,00040200,40000000,0001.01,0000.80,0000.55,0000.90,0000.06,0000.12,-000.37,0000.27,-000.70,19.4,25.8,11.8,08.1,0675.8,31.1
2021-08-11T21:05:00Z,00040200,00000000,0000.27,0000.27,0000.66,0000.42,0000.31,0000.01,0000.22,-000.10,0000.55,19.5,25.7,11.9,08.1,0675.8,31.1
2021-08-11T21:06:00Z,00040200,00000000,0000.80,0000.84,0000.57,-000.38,0000.11,0000.29,0000.04,0000.16,0000.11,19.5,25.7,11.9,08.2,0675.8,31.1
2021-08-11T21:07:00Z,00040200,00000000,0000.45,0000.48,0000.80,0000.56,0000.18,0000.14,0000.22,0000.03,-000.22,19.5,25.7,11.9,08.2,0675.8,31.1
2021-08-11T21:08:00Z,00040200,00000000,0000.78,0000.51,0000.62,0000.01,0000.22,0000.18,0000.21,0000.57,0000.72,19.5,25.7,11.9,08.1,0675.8,31.1
2021-08-11T21:09:00Z,00040200,00000000,0000.54,0000.69,0000.43,0000.56,-000.12,0000.12,0000.09,-000.24,0000.03,19.5,25.7,11.9,08.2,0675.8,31.1
2021-08-11T21:10:00Z,00040200,00000000,0000.34,0000.66,0000.63,0000.63,0000.10,0000.13,-000.16,0000.16,-000.04,19.5,25.7,11.8,08.1,0675.8,31.1
2021-08-11T21:11:00Z,00040200,00000000,0001.55,0000.58,0000.50,0000.47,-000.05,-000.19,0000.71,0000.20,0000.38,19.5,25.7,11.9,08.2,0675.8,31.1
2021-08-11T21:12:00Z,00040200,00000000,0000.73,0000.69,0000.63,0000.42,0000.12,0000.08,0000.12,0000.22,0000.17,19.5,25.6,12.0,08.2,0675.8,31.1
2021-08-11T21:13:00Z,00040200,00000000,0000.37,0000.56,0000.47,0000.29,0000.03,0000.09,-000.05,-000.01,-000.26,19.5,25.7,11.9,08.1,0675.8,31.1
2021-08-11T21:14:00Z,00040200,00000000,0000.93,0000.59,0000.05,0000.15,0000.15,-000.08,-000.03,0000.30,0000.09,19.5,25.6,11.8,08.1,0675.8,31.1
2021-08-11T21:15:00Z,00040200,00000000,0000.53,0000.74,0000.74,-000.13,-000.02,-000.01,0000.39,0000.30,0000.12,19.5,25.6,11.9,08.2,0675.8,31.1
2021-08-11T21:16:00Z,00040200,00000000,0000.61,0000.45,0000.60,0000.56,0000.11,-000.08,0000.10,0000.07,0000.24,19.5,25.6,11.9,08.1,0675.8,31.1
2021-08-11T21:17:00Z,00040200,00000000,0001.74,0000.58,0000.67,0000.41,0000.05,0000.38,0000.03,-000.25,0000.00,19.5,25.6,11.9,08.2,0675.8,31.1
2021-08-11T21:18:00Z,00040200,00000000,0000.81,0000.81,0000.30,0000.50,0000.05,-000.30,0000.36,0000.17,0000.06,19.5,25.6,11.8,08.1,0675.8,31.1
2021-08-11T21:19:00Z,00040200,00000000,0000.37,0000.50,0000.47,0000.05,-000.03,0000.21,-000.13,0000.21,-000.28,19.5,25.6,11.8,08.1,0675.9,31.1
2021-08-11T21:20:00Z,00040200,00000000,0000.69,0000.61,0000.55,-000.01,0000.04,-000.05,-000.07,0000.05,0000.56,19.5,25.6,11.8,08.1,0675.8,31.1
2021-08-11T21:21:00Z,00040200,00000000,0001.39,0000.68,0000.31,0000.19,0000.16,0000.03,0000.34,-000.27,-000.51,19.5,25.6,11.8,08.1,0675.8,31.1
2021-08-11T21:22:00Z,00040200,00000000,0000.25,0000.61,-000.06,0000.31,0000.12,-000.12,0000.04,0000.44,0000.53,19.5,25.6,11.8,08.1,0675.8,31.1
2021-08-11T21:23:00Z,00040200,00000000,0000.40,0000.81,0000.64,-000.16,0000.61,0000.21,0000.20,-000.00,-000.12,19.5,25.6,11.7,08.0,0675.9,31.1
2021-08-11T21:24:00Z,00040200,00000000,0000.63,0000.89,0000.62,0000.35,0000.20,-000.06,-000.02,-000.09,-000.06,19.5,25.6,11.6,08.0,0675.9,31.1
2021-08-11T21:25:00Z,00040200,00000000,0001.40,0000.44,0000.74,0000.66,0000.34,0000.53,0000.30,0000.35,0000.61,19.5,25.6,11.7,08.1,0675.9,31.1
2021-08-11T21:26:00Z,00040200,00000000,0001.22,0000.69,0000.31,-000.03,0000.39,0000.03,-000.15,-000.22,-000.22,19.5,25.6,11.7,08.0,0675.9,31.1
2021-08-11T21:27:00Z,00040200,00000000,0000.40,0000.96,0000.68,0000.56,0000.15,0000.15,0000.39,0000.40,0000.24,19.5,25.6,11.5,07.9,0675.9,31.1
2021-08-11T21:28:00Z,00040200,00000000,0000.41,0000.74,0000.86,0000.00,0000.37,-000.08,0000.00,-000.07,0000.04,19.4,25.6,11.5,08.0,0675.8,31.1
2021-08-11T21:29:00Z,00040200,00000000,0000.72,0000.57,0000.70,0000.07,0000.08,0000.07,0000.15,0000.56,0000.27,19.4,25.6,11.6,08.0,0675.8,31.1
2021-08-11T21:30:00Z,00040200,00000000,0001.23,0000.81,0000.07,0000.05,0000.10,-000.22,-000.03,-000.12,-000.24,19.4,25.6,11.5,07.9,0675.8,31.1
2021-08-11T21:31:00Z,00040200,00000000,0000.65,0000.64,0000.56,0000.22,0000.15,0000.38,0000.31,0000.46,0000.18,19.4,25.6,11.5,08.0,0675.8,31.1
2021-08-11T21:32:00Z,00040200,00000000,0000.69,0000.85,0000.31,-000.04,0000.13,0000.06,-000.12,-000.38,-000.08,19.4,25.6,11.4,07.9,0675.8,31.1
2021-08-11T21:33:00Z,00040200,00000000,0001.16,0000.80,0000.63,0000.53,0000.50,0000.15,0000.03,0000.14,0000.38,19.4,25.6,11.4,07.8,0675.8,31.1
2021-08-11T21:34:00Z,00040200,00000000,0001.09,0000.70,0000.49,0000.14,0000.22,-000.05,0000.01,-000.05,-000.26,19.4,25.6,11.3,07.8,0675.8,31.1
2021-08-11T21:35:00Z,00040200,00000000,0000.59,0000.78,0000.47,-000.02,0000.21,0000.21,0000.03,-000.40,-000.12,19.4,25.5,11.3,07.8,0675.8,31.1
2021-08-11T21:36:00Z,00040200,00000000,0000.90,0000.73,0000.14,0000.23,0000.19,-000.11,0000.34,0000.36,-000.10,19.4,25.6,11.3,07.7,0675.8,31.1
2021-08-11T21:37:00Z,00040200,00000000,0000.54,0000.46,0000.31,0000.13,0000.14,0000.39,0000.35,0000.48,0000.37,19.4,25.5,11.2,07.7,0675.8,31.1
2021-08-11T21:38:00Z,00040200,00000000,0000.49,0000.92,0000.48,0000.62,0000.27,0000.10,-000.33,-000.20,-000.12,19.4,25.5,11.2,07.7,0675.8,31.1
2021-08-11T21:39:00Z,00040200,00000000,0000.53,0000.57,0000.14,0000.00,0000.07,-000.05,0000.27,0000.46,0000.32,19.4,25.5,11.1,07.6,0675.8,31.1
2021-08-11T21:40:00Z,00040200,00000000,0000.42,0000.77,0000.41,0000.40,0000.23,-000.13,0000.45,0000.27,0000.24,19.4,25.5,11.2,07.7,0675.8,31.1
2021-08-11T21:41:00Z,00040200,00000000,0000.45,0000.64,0000.14,0000.03,0000.16,0000.11,-000.04,-000.05,0000.02,19.4,25.5,11.2,07.7,0675.8,31.1
2021-08-11T21:42:00Z,00040200,00000000,0000.67,0000.65,0000.43,0000.15,-000.08,-000.16,0000.10,0000.10,-000.21,19.4,25.5,11.2,07.7,0675.8,31.1
2021-08-11T21:43:00Z,00040200,00000000,0000.86,0000.60,0000.65,0000.25,0000.10,0000.07,0000.44,0000.14,0000.70,19.4,25.5,11.2,07.7,0675.8,31.1
2021-08-11T21:44:00Z,00040200,00000000,0000.90,0000.34,0000.42,0000.23,0000.14,0000.14,-000.29,-000.01,-000.39,19.4,25.5,11.3,07.8,0675.8,31.1
2021-08-11T21:45:00Z,00040200,00000000,0000.34,0000.71,0000.24,0000.89,-000.16,0000.11,0000.34,0000.60,0000.34,19.4,25.5,11.2,07.7,0675.8,31.1
2021-08-11T21:46:00Z,00040200,00000000,0000.44,0000.55,0000.10,0000.47,0000.03,-000.19,0000.29,-000.03,0000.28,19.4,25.5,11.2,07.7,0675.7,31.1
2021-08-11T21:47:00Z,00040200,00000000,0001.11,0000.95,0000.49,0000.34,0000.06,0000.39,0000.09,0000.04,-000.29,19.4,25.5,11.1,07.6,0675.7,31.1
2021-08-11T21:48:00Z,00040200,00000000,0000.61,0000.74,0000.59,0000.69,0000.03,-000.13,-000.57,-000.14,0000.15,19.4,25.5,11.0,07.6,0675.7,31.1
2021-08-11T21:49:00Z,00040200,00000000,0001.15,0000.61,0000.78,0000.72,0000.34,0000.01,0000.47,0000.07,-000.05,19.4,25.5,11.1,07.6,0675.7,31.1
2021-08-11T21:50:00Z,00040200,00000000,0000.82,0000.98,0000.31,0000.64,0000.11,0000.21,0000.23,0000.50,0000.12,19.4,25.5,11.1,07.7,0675.8,31.1
2021-08-11T21:51:00Z,00040200,00000000,0000.39,0001.07,0000.54,0000.38,0000.41,-000.06,0000.21,-000.23,0000.25,19.4,25.5,11.0,07.6,0675.8,31.1
2021-08-11T21:52:00Z,00040200,00000000,0000.23,0000.71,0000.21,0000.64,0000.23,0000.05,-000.33,0000.19,-000.23,19.4,25.5,11.0,07.6,0675.7,31.1
2021-08-11T21:53:00Z,00040200,00000000,0001.11,0000.88,0000.19,0000.65,0000.03,0000.25,0000.69,0000.31,0000.53,19.4,25.5,11.0,07.6,0675.7,31.1
2021-08-11T21:54:00Z,00040200,00000000,0000.44,0000.97,0000.31,0000.63,0000.24,-000.35,-000.39,-000.06,-000.10,19.3,25.5,10.9,07.5,0675.8,31.1
2021-08-11T21:55:00Z,00040200,00000000,0000.83,0000.73,0000.39,0000.37,0000.01,0000.13,0000.62,-000.04,-000.17,19.3,25.5,11.0,07.6,0675.7,31.1
2021-08-11T21:56:00Z,00040200,00000000,0000.78,0000.83,0000.53,0000.62,0000.09,-000.10,0000.04,0000.17,0000.18,19.3,25.5,10.9,07.5,0675.7,31.1
2021-08-11T21:57:00Z,00040200,40000000,,,,,,,0000.30,0000.50,0000.76,19.3,25.5,11.1,07.6,0675.8,31.1
2021-08-11T21:58:00Z,00040200,60000000,,,,,,,-000.07,0000.01,-000.45,19.1,25.6,11.1,07.4,0674.7,31.1
2021-08-11T21:59:00Z,00040200,20000000,,,,,,,-000.26,-000.22,-000.18,19.1,25.7,11.1,07.4,0674.7,31.1
